FW2259 Weather Reports


Display with metric or nautical units.
time (UTC)temp
F
wind
direction
speed
MPH
gust
MPH
rain 1hr
in
rain 24hr
in
rain mn
in
humidity
%
barometer
mb
20190324154518 71 157 0.0 2.0 0.00 0.00 0.00 31 1017.7
20190324153015 72 157 0.0 2.0 0.00 0.00 0.00 30 1017.9
20190324151515 72 149 0.0 4.0 0.00 0.00 0.00 29 1018.0
20190324150015 72 134 1.0 6.0 0.00 0.00 0.00 28 1018.1
20190324144512 72 23 0.0 2.0 0.00 0.00 0.00 28 1018.3
20190324143008 72 24 1.0 4.0 0.00 0.00 0.00 30 1018.7
20190324141504 72 133 1.0 5.0 0.00 0.00 0.00 28 1018.8
20190324140139 72 178 1.0 4.0 0.00 0.00 0.00 29 1019.1
20190324134632 72 206 0.0 5.0 0.00 0.00 0.00 32 1019.3
20190324133232 71 179 0.0 2.0 0.00 0.00 0.00 31 1019.7
20190324131657 71 131 0.0 4.0 0.00 0.00 0.00 35 1019.9
20190324130201 71 143 1.0 5.0 0.00 0.00 0.00 32 1020.2
20190324124626 71 213 1.0 4.0 0.00 0.00 0.00 33 1020.6
20190324123155 70 207 0.0 6.0 0.00 0.00 0.00 32 1021.0
20190324121634 69 145 0.0 2.0 0.00 0.00 0.00 32 1021.5
20190324120150 69 136 1.0 5.0 0.00 0.00 0.00 36 1021.8
20190324114552 68 189 0.0 4.0 0.00 0.00 0.00 39 1022.1
20190324113039 67 135 0.0 4.0 0.00 0.00 0.00 38 1022.5
20190324111552 67 295 1.0 4.0 0.00 0.00 0.00 40 1022.9
20190324110047 66 84 1.0 3.0 0.00 0.00 0.00 42 1023.1
20190324104547 65 53 0.0 4.0 0.00 0.00 0.00 45 1023.3
20190324103022 63 26 1.0 2.0 0.00 0.00 0.00 46 1023.5
20190324101603 62 101 1.0 4.0 0.00 0.00 0.00 48 1023.7
20190324100023 60 307 1.0 4.0 0.00 0.00 0.00 52 1024.0
20190324094513 59 59 0.0 4.0 0.00 0.00 0.00 51 1024.3
20190324093038 58 259 1.0 2.0 0.00 0.00 0.00 56 1024.4
20190324091510 56 313 1.0 2.0 0.00 0.00 0.00 58 1024.8
20190324090135 55 279 1.0 2.0 0.00 0.00 0.00 61 1025.0
20190324084646 53 123 1.0 4.0 0.00 0.00 0.00 64 1025.2
20190324083154 51 204 0.0 2.0 0.00 0.00 0.00 67 1025.4
20190324081746 49 204 0.0 2.0 0.00 0.00 0.00 70 1025.6
20190324080111 47 204 0.0 1.0 0.00 0.00 0.00 75 1025.9
20190324074607 46 147 0.0 2.0 0.00 0.00 0.00 76 1026.2
20190324073058 45 147 0.0 2.0 0.00 0.00 0.00 79 1026.4
20190324071611 43 147 0.0 1.0 0.00 0.00 0.00 83 1026.6
20190324070116 41 148 0.0 2.0 0.00 0.00 0.00 86 1026.7
20190324064553 38 148 0.0 2.0 0.00 0.00 0.00 91 1026.7
20190324063039 36 148 0.0 2.0 0.00 0.00 0.00 92 1026.7
20190324061641 34 148 0.0 0.0 0.00 0.00 0.00 92 1026.9
20190324060042 33 148 0.0 0.0 0.00 0.00 0.00 92 1026.8
20190324054543 32 148 0.0 0.0 0.00 0.00 0.00 92 1026.7
20190324053029 31 148 0.0 0.0 0.00 0.00 0.00 91 1026.8
20190324051550 31 148 0.0 0.0 0.00 0.00 0.00 91 1026.8
20190324050047 31 148 0.0 0.0 0.00 0.00 0.00 91 1026.7
20190324044616 31 148 0.0 0.0 0.00 0.00 0.00 91 1026.6
20190324043045 32 148 0.0 0.0 0.00 0.00 0.00 91 1026.6
20190324041531 32 148 0.0 0.0 0.00 0.00 0.00 91 1026.5
20190324040024 32 148 0.0 0.0 0.00 0.00 0.00 90 1026.7
20190324034519 32 148 0.0 0.0 0.00 0.00 0.00 90 1026.7
20190324033017 33 148 0.0 0.0 0.00 0.00 0.00 90 1026.6
20190324031518 33 148 0.0 0.0 0.00 0.00 0.00 90 1026.6
20190324030025 33 148 0.0 0.0 0.00 0.00 0.00 90 1026.8
20190324024512 33 148 0.0 0.0 0.00 0.00 0.00 89 1026.8
20190324023012 34 148 0.0 0.0 0.00 0.00 0.00 89 1026.7
20190324021509 34 148 0.0 0.0 0.00 0.00 0.00 89 1026.7
20190324020009 34 148 0.0 0.0 0.00 0.00 0.00 89 1026.8
20190324014509 34 148 0.0 0.0 0.00 0.00 0.00 88 1026.8
20190324013003 34 148 0.0 0.0 0.00 0.00 0.00 88 1026.9
20190324011658 35 148 0.0 0.0 0.00 0.00 0.00 88 1026.9
20190324010304 35 148 0.0 0.0 0.00 0.00 0.00 88 1027.1
20190324004650 36 148 0.0 0.0 0.00 0.00 0.00 87 1027.1
20190324003150 36 148 0.0 0.0 0.00 0.00 0.00 87 1027.2
20190324001646 36 148 0.0 1.0 0.00 0.00 0.00 86 1027.3
20190324000133 36 148 0.0 0.0 0.00 0.00 0.00 86 1027.3
20190323234659 37 148 0.0 0.0 0.00 0.00 0.00 86 1027.4
20190323233134 37 148 0.0 1.0 0.00 0.00 0.00 85 1027.4
20190323231723 38 148 0.0 0.0 0.00 0.00 0.00 84 1027.5
20190323230132 38 148 0.0 0.0 0.00 0.00 0.00 84 1027.4
20190323224603 38 148 0.0 1.0 0.00 0.00 0.00 83 1027.4
20190323223153 39 148 0.0 0.0 0.00 0.00 0.00 81 1027.4
20190323221650 39 148 0.0 0.0 0.00 0.00 0.00 81 1027.5
20190323220131 40 148 0.0 1.0 0.00 0.00 0.00 79 1027.5
20190323214555 40 148 0.0 0.0 0.00 0.00 0.00 79 1027.4
20190323213126 40 148 0.0 0.0 0.00 0.00 0.00 79 1027.5
20190323211625 41 148 0.0 0.0 0.00 0.00 0.00 78 1027.3
20190323210237 42 148 0.0 0.0 0.00 0.00 0.00 78 1027.4
20190323204620 42 148 0.0 0.0 0.00 0.00 0.00 77 1027.2
20190323203137 43 148 0.0 0.0 0.00 0.00 0.00 76 1027.3
20190323201609 43 148 0.0 0.0 0.00 0.00 0.00 73 1027.1
20190323200112 44 148 0.0 0.0 0.00 0.00 0.00 72 1027.1
20190323194608 45 148 0.0 0.0 0.00 0.00 0.00 71 1027.1
20190323193141 46 148 0.0 0.0 0.00 0.00 0.00 70 1027.0
20190323191628 47 148 0.0 0.0 0.00 0.00 0.00 66 1026.9
20190323190059 48 148 0.0 0.0 0.00 0.00 0.00 64 1026.7
20190323184614 49 148 0.0 0.0 0.00 0.00 0.00 62 1026.5
20190323183123 50 148 0.0 0.0 0.00 0.00 0.00 60 1026.2
20190323181554 53 148 0.0 0.0 0.00 0.00 0.00 54 1026.0
20190323180116 54 148 0.0 0.0 0.00 0.00 0.00 51 1025.7
20190323174629 56 148 0.0 0.0 0.00 0.00 0.00 48 1025.7
20190323173158 58 148 0.0 1.0 0.00 0.00 0.00 45 1025.7
20190323171609 60 148 0.0 2.0 0.00 0.00 0.00 42 1025.6
20190323170113 62 152 1.0 3.0 0.00 0.00 0.00 39 1025.6
20190323164703 63 127 1.0 4.0 0.00 0.00 0.00 38 1025.7
20190323163108 64 176 2.0 6.0 0.00 0.00 0.00 37 1025.6
20190323161543 65 150 2.0 6.0 0.00 0.00 0.00 36 1025.4
20190323160118 65 148 2.0 6.0 0.00 0.00 0.00 36 1025.4